Regional Weather Roundup
Issued by NWS

Home | Current Version | Previous Version | Graphics & Text | Print | Product List | Glossary On
Versions: 1 2 3 4 5 6 7 8 9 10 11 12 13 14 15 16 17 18 19 20 21 22 23 24 25 26 27 28 29 30 31 32 33 34 35 36 37 38 39 40 41 42 43 44 45 46 47 48 49 50
000
ASUS43 KLOT 241300
RWRIL

ILLINOIS REGIONAL WEATHER ROUNDUP
NATIONAL WEATHER SERVICE CHICAGO/ROMEOVILLE IL
800 AM CDT FRI OCT 24 2014

NOTE: "FAIR" INDICATES FEW OR NO CLOUDS BELOW 12,000 FEET WITH NO
SIGNIFICANT WEATHER AND/OR OBSTRUCTIONS TO VISIBILITY.

* THESE STATIONS ARE NOT UNDER NWS QUALITY CONTROL. THEY ALSO MAY NOT
  REPORT WEATHER SUCH AS PRECIPITATION OR FOG.

ILZ001-002-007-009-015-016-024-241400-
NORTHWEST ILLINOIS

CITY           SKY/WX    TMP DP  RH WIND       PRES   REMARKS
MOLINE         FOG       51  50  96 CALM      30.06R VSB 3/4
STERLING*      CLOUDY    45  41  87 S3        30.06S VSB 1/4
$$

ILZ003-004-008-010-011-017-018-241400-
NORTH CENTRAL ILLINOIS

CITY           SKY/WX    TMP DP  RH WIND       PRES   REMARKS
ROCKFORD       FOG       48  47  96 CALM      30.07F VSB 1
$$

ILZ005-006-012>014-019>023-241400-
NORTHEAST ILLINOIS

CITY           SKY/WX    TMP DP  RH WIND       PRES   REMARKS
CHICAGO-OHARE  CLOUDY    52  46  80 W5        30.06R
CHICAGO-MIDWAY CLOUDY    54  47  77 SW6       30.06R
AURORA         CLOUDY    47  44  90 CALM      30.07S FOG
WAUKEGAN       CLOUDY    50  47  89 W5        30.06R FOG
DUPAGE AIRPORT CLOUDY    51  46  83 CALM      30.06R
WHEELING       CLOUDY    53  46  77 NW7       30.08R
NORTHERLY ISL    N/A     54  45  71 SW6         N/A
$$

LMZ740>746-241400-
SOUTHERN LAKE MICHIGAN

STATION/POSITION SKY/WX   TEMP    WIND        PRES    VSBY  WAVE
                          AIR SEA DIR/SP/G                  HT/PER
                          (F)     (DEG/KT/KT) (MB)    (MI)  (FT/S)
SOUTHERN BUOY              54 54  260/ 10/ 10 1017.5R         1/ 3
WAUKEGAN HARBOR            51     290/  4/  7   N/A
HARRISON CRIB              54     240/  4/  6   N/A
BURNHAM HARBOR             54     260/  3/  7   N/A
CALUMET HARBOR             53     200/  4/  6 1016.6R
MICHIGAN CITY              52     190/  7/  8   N/A
$$

ILZ025>027-034>036-040-047-049-050-058-095>099-241400-
WEST-CENTRAL ILLINOIS

CITY           SKY/WX    TMP DP  RH WIND       PRES   REMARKS
QUINCY         FOG       54  54 100 SW6       30.08R VSB<1/4
$$

ILZ028>032-037-038-041>044-048-051>054-059>061-241400-
CENTRAL ILLINOIS

CITY           SKY/WX    TMP DP  RH WIND       PRES   REMARKS
DECATUR        MOCLDY    49  45  86 W3        30.10R
PEORIA         CLOUDY    49  45  86 NE3       30.08S FOG
SPRINGFIELD    FOG       54  53  97 CALM      30.09S VSB 1/4
TAYLORVILLE    NOT AVBL
$$

ILZ033-039-045-046-055>057-062-063-241400-
EAST-CENTRAL ILLINOIS

CITY           SKY/WX    TMP DP  RH WIND       PRES   REMARKS
CHAMPAIGN      PTCLDY    46  44  93 SE3       30.09R
MATTOON        PTCLDY    49  45  86 S6        30.09R
$$

ILZ079-100>102-241400-
SOUTHWEST ILLINOIS

CITY           SKY/WX    TMP DP  RH WIND       PRES   REMARKS
ALTON          CLOUDY    50  50 100 W5        30.11R
CAHOKIA*       CLOUDY    53  50  89 SW6       30.12R
$$

ILZ064>066-069>071-074>076-080>082-084>086-088>090-092>094-241400-
SOUTH-CENTRAL ILLINOIS

CITY           SKY/WX    TMP DP  RH WIND       PRES   REMARKS
CARBONDALE     CLOUDY    53  48  83 S3        30.12S
MARION         MOCLDY    52  48  87 SW6       30.13R
MT. VERNON     MOCLDY    48  45  87 CALM      30.12R
$$

ILZ067-068-072-073-078-083-087-091-241400-
SOUTHEAST ILLINOIS

CITY           SKY/WX    TMP DP  RH WIND       PRES   REMARKS
LAWRENCEVILLE  CLOUDY    52  48  86 S3        30.12R
$$

ABBREVIATIONS USED IN REMARKS
   TC - TEMPERATURE IN CELSIUS
  WCI - WIND CHILL INDEX
   HX - HEAT INDEX
  VSB - VISIBILITY
$$




USA.gov is the U.S. government's official web portal to all federal, state and local government web resources and services.